Terug naar catalogus

TITAN 34B DEB

LostHEO
NORAD 44321·DEBRIS·🇺🇸 United States

Gelanceerd Apr 24, 1981 vanaf Vandenberg Space Force Base

Loading…

Volgende Passages (komende 24 uur)

TLE

VerouderdSource: Space-Track

Epoch: May 4, 2022, 08:18 UTC

1 44321U 81038G   22124.34639779  .00017595  00000-0  51157-2 0  9991
2 44321  63.0094 302.1512 6397734 264.4438  24.7316  3.44820460 34845

Volg TITAN 34B DEB in realtime met AllMySat

Download on the App Store